Location: Daytona Beach
(29.2106°N, 81.0231°W)
Time: 23:06:07
(UTC-04:00)

ISS - Pass Details

Date: 30 June 2021
Orbit: 419 x 421 km, 51.6° (Epoch: 03 August)

Event Time Altitude Azimuth Distance (km) Brightness Sun altitude
Exits shadow 03:42:10 18° 14° (NNE) 1,123 -0.9 -28.5°
Drops below altitude 10° 03:43:14 10° 24° (NNE) 1,497 0.0 -28.3°
Sets 03:45:28 0° 34° (NE) 2,363 1.3 -28.1°
